Time,TemperatureF,DewpointF,PressureIn,WindDirection,WindDirectionDegrees,WindSpeedMPH,WindSpeedGustMPH,Humidity,HourlyPrecipIn,Conditions,Clouds,dailyrainin,SoftwareType,DateUTC
2013-02-05 00:06:00,39.8,33.2,30.01,SW,222,0.0,0.0,77,0.00,,,0.00,Wunderground v.1.15,2013-02-05 05:06:00,
2013-02-05 00:12:00,40.1,33.5,30.01,SW,222,0.0,0.0,77,0.00,,,0.00,Wunderground v.1.15,2013-02-05 05:12:00,
2013-02-05 00:18:00,40.1,33.8,30.00,SW,222,0.0,0.0,78,0.00,,,0.00,Wunderground v.1.15,2013-02-05 05:18:00,
2013-02-05 00:23:00,40.2,33.6,30.00,SW,222,0.0,0.0,77,0.00,,,0.00,Wunderground v.1.15,2013-02-05 05:23:00,
2013-02-05 00:28:00,40.2,34.2,30.00,SW,222,0.0,0.0,79,0.00,,,0.00,Wunderground v.1.15,2013-02-05 05:28:00,
2013-02-05 00:33:00,40.0,33.7,30.00,SW,222,0.0,0.0,78,0.00,,,0.00,Wunderground v.1.15,2013-02-05 05:33:00,
2013-02-05 00:39:00,39.6,33.9,29.99,SW,222,0.0,0.0,80,0.00,,,0.00,Wunderground v.1.15,2013-02-05 05:39:00,
2013-02-05 00:44:00,39.4,33.7,29.99,SW,222,0.0,0.0,80,0.00,,,0.00,Wunderground v.1.15,2013-02-05 05:44:00,
2013-02-05 00:49:00,39.3,33.3,29.99,SW,222,0.0,0.0,79,0.00,,,0.00,Wunderground v.1.15,2013-02-05 05:49:00,
2013-02-05 00:54:00,39.3,33.6,29.99,SW,222,0.0,0.0,80,0.00,,,0.00,Wunderground v.1.15,2013-02-05 05:54:00,
2013-02-05 00:59:00,39.3,34.0,29.98,SW,222,0.0,0.0,81,0.00,,,0.00,Wunderground v.1.15,2013-02-05 05:59:00,
2013-02-05 01:05:00,39.1,33.8,29.98,SW,222,0.0,0.0,81,0.00,,,0.00,Wunderground v.1.15,2013-02-05 06:05:00,
2013-02-05 01:10:00,39.0,33.7,29.98,SW,222,0.0,0.0,81,0.00,,,0.00,Wunderground v.1.15,2013-02-05 06:10:00,
2013-02-05 01:15:00,38.8,33.5,29.98,SW,222,0.0,0.0,81,0.00,,,0.00,Wunderground v.1.15,2013-02-05 06:15:00,
2013-02-05 01:20:00,38.3,33.3,29.98,SW,222,0.0,0.0,82,0.00,,,0.00,Wunderground v.1.15,2013-02-05 06:20:00,
2013-02-05 01:26:00,37.7,32.7,29.98,SW,222,0.0,0.0,82,0.00,,,0.00,Wunderground v.1.15,2013-02-05 06:26:00,
2013-02-05 01:31:00,37.7,32.7,29.98,SW,222,0.0,0.0,82,0.00,,,0.00,Wunderground v.1.15,2013-02-05 06:31:00,
2013-02-05 01:36:00,38.4,33.1,29.98,SW,222,0.0,0.0,81,0.00,,,0.00,Wunderground v.1.15,2013-02-05 06:36:00,
2013-02-05 01:42:00,39.3,33.0,29.98,SW,222,0.0,0.0,78,0.00,,,0.00,Wunderground v.1.15,2013-02-05 06:42:00,
2013-02-05 01:48:00,39.9,32.9,29.98,SW,222,0.0,0.0,76,0.00,,,0.00,Wunderground v.1.15,2013-02-05 06:48:00,
2013-02-05 01:53:00,40.4,33.1,29.98,SW,222,0.0,0.0,75,0.00,,,0.00,Wunderground v.1.15,2013-02-05 06:53:00,
2013-02-05 01:58:00,40.7,33.1,29.98,SW,222,0.0,0.0,74,0.00,,,0.00,Wunderground v.1.15,2013-02-05 06:58:00,
2013-02-05 02:03:00,41.0,33.0,29.97,SW,222,0.0,0.0,73,0.00,,,0.00,Wunderground v.1.15,2013-02-05 07:03:00,
2013-02-05 02:09:00,41.3,33.0,29.97,SW,222,0.0,1.0,72,0.00,,,0.00,Wunderground v.1.15,2013-02-05 07:09:00,
2013-02-05 02:14:00,41.2,33.2,29.97,SW,222,0.0,0.0,73,0.00,,,0.00,Wunderground v.1.15,2013-02-05 07:14:00,
2013-02-05 02:19:00,41.0,34.0,29.97,SW,222,0.0,0.0,76,0.00,,,0.00,Wunderground v.1.15,2013-02-05 07:19:00,
2013-02-05 02:24:00,40.9,32.9,29.97,SW,222,0.0,0.0,73,0.00,,,0.00,Wunderground v.1.15,2013-02-05 07:24:00,
2013-02-05 02:29:00,40.7,32.7,29.97,SW,222,0.0,0.0,73,0.00,,,0.00,Wunderground v.1.15,2013-02-05 07:29:00,
2013-02-05 02:34:00,40.6,32.6,29.97,SW,222,0.0,3.0,73,0.00,,,0.00,Wunderground v.1.15,2013-02-05 07:34:00,
2013-02-05 02:39:00,40.4,32.4,29.97,SW,222,0.0,3.0,73,0.00,,,0.00,Wunderground v.1.15,2013-02-05 07:39:00,
2013-02-05 02:44:00,40.3,32.3,29.97,SW,222,0.0,0.0,73,0.00,,,0.00,Wunderground v.1.15,2013-02-05 07:44:00,
2013-02-05 02:49:00,40.2,32.2,29.96,SW,222,0.0,0.0,73,0.00,,,0.00,Wunderground v.1.15,2013-02-05 07:49:00,
2013-02-05 02:54:00,40.2,32.6,29.97,SW,222,0.0,0.0,74,0.00,,,0.00,Wunderground v.1.15,2013-02-05 07:54:00,
2013-02-05 02:59:00,39.7,32.4,29.97,SW,222,0.0,0.0,75,0.00,,,0.00,Wunderground v.1.15,2013-02-05 07:59:00,
2013-02-05 03:04:00,38.3,31.4,29.97,SW,222,0.0,0.0,76,0.00,,,0.00,Wunderground v.1.15,2013-02-05 08:04:00,
2013-02-05 03:09:00,37.0,31.1,29.96,SW,222,0.0,0.0,79,0.00,,,0.00,Wunderground v.1.15,2013-02-05 08:09:00,
2013-02-05 03:14:00,36.3,31.0,29.96,SW,222,0.0,0.0,81,0.00,,,0.00,Wunderground v.1.15,2013-02-05 08:14:00,
2013-02-05 03:19:00,35.7,30.7,29.97,SW,222,0.0,0.0,82,0.00,,,0.00,Wunderground v.1.15,2013-02-05 08:19:00,
2013-02-05 03:24:00,35.3,30.4,29.97,SW,222,0.0,0.0,82,0.00,,,0.00,Wunderground v.1.15,2013-02-05 08:24:00,
2013-02-05 03:29:00,34.8,30.2,29.97,SW,222,0.0,0.0,83,0.00,,,0.00,Wunderground v.1.15,2013-02-05 08:29:00,
2013-02-05 03:34:00,34.3,30.0,29.97,SW,222,0.0,0.0,84,0.00,,,0.00,Wunderground v.1.15,2013-02-05 08:34:00,
2013-02-05 03:39:00,34.1,30.1,29.97,SW,222,0.0,0.0,85,0.00,,,0.00,Wunderground v.1.15,2013-02-05 08:39:00,
2013-02-05 03:44:00,33.9,30.2,29.97,SW,222,0.0,0.0,86,0.00,,,0.00,Wunderground v.1.15,2013-02-05 08:44:00,
2013-02-05 03:49:00,33.9,30.2,29.97,SW,222,0.0,0.0,86,0.00,,,0.00,Wunderground v.1.15,2013-02-05 08:49:00,
2013-02-05 03:54:00,33.9,30.2,29.97,SW,222,0.0,0.0,86,0.00,,,0.00,Wunderground v.1.15,2013-02-05 08:54:00,
2013-02-05 03:59:00,33.8,30.1,29.97,SW,222,0.0,0.0,86,0.00,,,0.00,Wunderground v.1.15,2013-02-05 08:59:00,
2013-02-05 04:04:00,33.8,30.1,29.97,SW,222,0.0,0.0,86,0.00,,,0.00,Wunderground v.1.15,2013-02-05 09:04:00,
2013-02-05 04:09:00,33.8,30.1,29.97,SW,222,0.0,0.0,86,0.00,,,0.00,Wunderground v.1.15,2013-02-05 09:09:00,
2013-02-05 04:14:00,33.8,30.1,29.97,SW,222,0.0,0.0,86,0.00,,,0.00,Wunderground v.1.15,2013-02-05 09:14:00,
2013-02-05 04:20:00,33.7,30.0,29.97,SW,222,0.0,0.0,86,0.00,,,0.00,Wunderground v.1.15,2013-02-05 09:20:00,
2013-02-05 04:25:00,33.5,29.8,29.97,SW,222,0.0,0.0,86,0.00,,,0.00,Wunderground v.1.15,2013-02-05 09:25:00,
2013-02-05 04:30:00,33.4,29.7,29.97,SW,222,0.0,0.0,86,0.00,,,0.00,Wunderground v.1.15,2013-02-05 09:30:00,
2013-02-05 04:35:00,33.3,29.6,29.97,SW,222,0.0,0.0,86,0.00,,,0.00,Wunderground v.1.15,2013-02-05 09:35:00,
2013-02-05 04:40:00,33.2,29.5,29.97,SW,222,0.0,0.0,86,0.00,,,0.00,Wunderground v.1.15,2013-02-05 09:40:00,
2013-02-05 04:45:00,33.1,29.4,29.97,SW,222,0.0,0.0,86,0.00,,,0.00,Wunderground v.1.15,2013-02-05 09:45:00,
2013-02-05 04:50:00,32.9,29.5,29.97,SW,222,0.0,0.0,87,0.00,,,0.00,Wunderground v.1.15,2013-02-05 09:50:00,
2013-02-05 04:55:00,32.9,29.7,29.97,SW,222,0.0,0.0,88,0.00,,,0.00,Wunderground v.1.15,2013-02-05 09:55:00,
2013-02-05 05:00:00,32.9,29.7,29.97,SW,222,0.0,0.0,88,0.00,,,0.00,Wunderground v.1.15,2013-02-05 10:00:00,
2013-02-05 05:05:00,33.0,29.8,29.97,SW,222,0.0,0.0,88,0.00,,,0.00,Wunderground v.1.15,2013-02-05 10:05:00,
2013-02-05 05:10:00,33.0,29.8,29.96,SW,222,0.0,0.0,88,0.00,,,0.00,Wunderground v.1.15,2013-02-05 10:10:00,
2013-02-05 05:15:00,33.0,29.8,29.96,SW,222,0.0,0.0,88,0.00,,,0.00,Wunderground v.1.15,2013-02-05 10:15:00,
2013-02-05 05:20:00,32.9,29.5,29.96,SW,222,0.0,0.0,87,0.00,,,0.00,Wunderground v.1.15,2013-02-05 10:20:00,
2013-02-05 05:25:00,32.5,29.1,29.96,SW,222,0.0,0.0,87,0.00,,,0.00,Wunderground v.1.15,2013-02-05 10:25:00,
2013-02-05 05:30:00,32.0,28.6,29.96,SW,222,0.0,0.0,87,0.00,,,0.00,Wunderground v.1.15,2013-02-05 10:30:00,
2013-02-05 05:35:00,31.6,28.2,29.96,SW,222,0.0,0.0,87,0.00,,,0.00,Wunderground v.1.15,2013-02-05 10:35:00,
2013-02-05 05:40:00,31.3,28.2,29.97,SW,222,0.0,0.0,88,0.00,,,0.00,Wunderground v.1.15,2013-02-05 10:40:00,
2013-02-05 05:45:00,31.1,28.0,29.97,SW,222,0.0,0.0,88,0.00,,,0.00,Wunderground v.1.15,2013-02-05 10:45:00,
2013-02-05 05:50:00,31.1,28.2,29.96,SW,222,0.0,0.0,89,0.00,,,0.00,Wunderground v.1.15,2013-02-05 10:50:00,
2013-02-05 05:55:00,31.2,28.6,29.97,SW,222,0.0,0.0,90,0.00,,,0.00,Wunderground v.1.15,2013-02-05 10:55:00,
2013-02-05 06:01:00,31.5,28.9,29.97,SW,222,0.0,0.0,90,0.00,,,0.00,Wunderground v.1.15,2013-02-05 11:01:00,
2013-02-05 06:06:00,31.6,29.0,29.97,SW,222,0.0,0.0,90,0.00,,,0.00,Wunderground v.1.15,2013-02-05 11:06:00,
2013-02-05 06:11:00,31.5,28.6,29.97,SW,222,0.0,0.0,89,0.00,,,0.00,Wunderground v.1.15,2013-02-05 11:11:00,
2013-02-05 06:16:00,31.5,28.6,29.97,SW,222,0.0,0.0,89,0.00,,,0.00,Wunderground v.1.15,2013-02-05 11:16:00,
2013-02-05 06:21:00,31.5,28.6,29.97,SW,222,0.0,0.0,89,0.00,,,0.00,Wunderground v.1.15,2013-02-05 11:21:00,
2013-02-05 06:26:00,31.4,28.5,29.98,SW,222,0.0,0.0,89,0.00,,,0.00,Wunderground v.1.15,2013-02-05 11:26:00,
2013-02-05 06:31:00,31.4,28.8,29.98,SW,222,0.0,0.0,90,0.00,,,0.00,Wunderground v.1.15,2013-02-05 11:31:00,
2013-02-05 06:36:00,31.3,28.7,29.98,SW,222,0.0,0.0,90,0.00,,,0.00,Wunderground v.1.15,2013-02-05 11:36:00,
2013-02-05 06:41:00,31.2,28.6,29.98,SW,222,0.0,0.0,90,0.00,,,0.00,Wunderground v.1.15,2013-02-05 11:41:00,
2013-02-05 06:46:00,31.2,28.6,29.98,SW,222,0.0,0.0,90,0.00,,,0.00,Wunderground v.1.15,2013-02-05 11:46:00,
2013-02-05 06:51:00,31.2,28.6,29.98,SW,222,0.0,0.0,90,0.00,,,0.00,Wunderground v.1.15,2013-02-05 11:51:00,
2013-02-05 06:56:00,31.0,28.4,29.99,SW,222,0.0,0.0,90,0.00,,,0.00,Wunderground v.1.15,2013-02-05 11:56:00,
2013-02-05 07:01:00,30.8,28.2,29.99,SW,222,0.0,0.0,90,0.00,,,0.00,Wunderground v.1.15,2013-02-05 12:01:00,
2013-02-05 07:06:00,30.7,28.1,29.99,SW,222,0.0,0.0,90,0.00,,,0.00,Wunderground v.1.15,2013-02-05 12:06:00,
2013-02-05 07:12:00,30.7,28.1,29.99,SW,222,0.0,0.0,90,0.00,,,0.00,Wunderground v.1.15,2013-02-05 12:12:00,
2013-02-05 07:17:00,30.8,28.2,29.99,SW,222,0.0,0.0,90,0.00,,,0.00,Wunderground v.1.15,2013-02-05 12:17:00,
2013-02-05 07:22:00,30.9,28.3,30.00,SW,222,0.0,0.0,90,0.00,,,0.00,Wunderground v.1.15,2013-02-05 12:22:00,
2013-02-05 07:27:00,31.1,28.5,30.00,SW,222,0.0,0.0,90,0.00,,,0.00,Wunderground v.1.15,2013-02-05 12:27:00,
2013-02-05 07:32:00,31.1,28.5,30.00,SW,222,0.0,0.0,90,0.00,,,0.00,Wunderground v.1.15,2013-02-05 12:32:00,
2013-02-05 07:37:00,31.5,29.2,30.00,SW,222,0.0,0.0,91,0.00,,,0.00,Wunderground v.1.15,2013-02-05 12:37:00,
2013-02-05 07:42:00,32.1,30.0,30.01,SW,222,0.0,0.0,92,0.00,,,0.00,Wunderground v.1.15,2013-02-05 12:42:00,
2013-02-05 07:47:00,32.8,30.5,30.00,SW,222,0.0,0.0,91,0.00,,,0.00,Wunderground v.1.15,2013-02-05 12:47:00,
2013-02-05 07:52:00,33.5,31.2,30.01,SW,222,0.0,0.0,91,0.00,,,0.00,Wunderground v.1.15,2013-02-05 12:52:00,
2013-02-05 07:57:00,34.2,31.3,30.00,SW,222,0.0,0.0,89,0.00,,,0.00,Wunderground v.1.15,2013-02-05 12:57:00,
2013-02-05 08:02:00,34.5,31.6,30.00,SW,222,0.0,0.0,89,0.00,,,0.00,Wunderground v.1.15,2013-02-05 13:02:00,
2013-02-05 08:07:00,34.6,31.7,30.00,SW,222,0.0,0.0,89,0.00,,,0.00,Wunderground v.1.15,2013-02-05 13:07:00,
2013-02-05 08:12:00,35.0,32.1,30.00,SW,222,0.0,0.0,89,0.00,,,0.00,Wunderground v.1.15,2013-02-05 13:12:00,
2013-02-05 08:17:00,35.3,32.1,30.01,SW,222,0.0,0.0,88,0.00,,,0.00,Wunderground v.1.15,2013-02-05 13:17:00,
2013-02-05 08:22:00,35.7,32.8,30.01,SW,222,0.0,0.0,89,0.00,,,0.00,Wunderground v.1.15,2013-02-05 13:22:00,
2013-02-05 08:27:00,36.5,33.3,30.01,SW,222,0.0,0.0,88,0.00,,,0.00,Wunderground v.1.15,2013-02-05 13:27:00,
2013-02-05 08:32:00,37.3,33.8,30.01,SW,222,0.0,0.0,87,0.00,,,0.00,Wunderground v.1.15,2013-02-05 13:32:00,
2013-02-05 08:37:00,38.0,34.2,30.01,SW,222,0.0,0.0,86,0.00,,,0.00,Wunderground v.1.15,2013-02-05 13:37:00,
2013-02-05 08:42:00,39.2,34.2,30.01,SW,222,0.0,0.0,82,0.00,,,0.00,Wunderground v.1.15,2013-02-05 13:42:00,
2013-02-05 08:47:00,40.1,34.4,30.00,SW,222,0.0,0.0,80,0.00,,,0.00,Wunderground v.1.15,2013-02-05 13:47:00,
2013-02-05 08:52:00,40.9,35.2,30.01,SW,222,3.0,3.0,80,0.00,,,0.00,Wunderground v.1.15,2013-02-05 13:52:00,
2013-02-05 08:57:00,41.9,35.5,30.01,SW,222,0.0,4.0,78,0.00,,,0.00,Wunderground v.1.15,2013-02-05 13:57:00,
2013-02-05 09:02:00,42.6,35.9,30.01,SW,222,0.0,1.0,77,0.00,,,0.00,Wunderground v.1.15,2013-02-05 14:02:00,
2013-02-05 09:07:00,43.2,36.5,30.01,SW,222,0.0,3.0,77,0.00,,,0.00,Wunderground v.1.15,2013-02-05 14:07:00,
2013-02-05 09:12:00,43.2,35.8,30.02,SW,222,0.0,0.0,75,0.00,,,0.00,Wunderground v.1.15,2013-02-05 14:12:00,
2013-02-05 09:17:00,43.1,35.7,30.02,SW,222,0.0,0.0,75,0.00,,,0.00,Wunderground v.1.15,2013-02-05 14:17:00,
2013-02-05 09:22:00,43.4,36.0,30.01,SW,222,0.0,0.0,75,0.00,,,0.00,Wunderground v.1.15,2013-02-05 14:22:00,
2013-02-05 09:27:00,44.1,36.7,30.01,SW,222,0.0,0.0,75,0.00,,,0.00,Wunderground v.1.15,2013-02-05 14:27:00,
2013-02-05 09:32:00,45.4,37.2,30.02,SW,222,0.0,2.0,73,0.00,,,0.00,Wunderground v.1.15,2013-02-05 14:32:00,
2013-02-05 09:37:00,46.6,37.7,30.02,SW,222,0.0,2.0,71,0.00,,,0.00,Wunderground v.1.15,2013-02-05 14:37:00,
2013-02-05 09:42:00,47.3,37.6,30.01,SW,222,0.0,0.0,69,0.00,,,0.00,Wunderground v.1.15,2013-02-05 14:42:00,
2013-02-05 09:47:00,48.1,37.7,30.01,SW,222,0.0,4.0,67,0.00,,,0.00,Wunderground v.1.15,2013-02-05 14:47:00,
2013-02-05 09:52:00,49.0,37.7,30.01,SW,222,3.0,5.0,65,0.00,,,0.00,Wunderground v.1.15,2013-02-05 14:52:00,
2013-02-05 09:58:00,49.8,38.5,30.01,SW,222,1.0,7.0,65,0.00,,,0.00,Wunderground v.1.15,2013-02-05 14:58:00,
2013-02-05 10:03:00,50.6,38.5,30.01,SW,221,4.0,6.0,63,0.00,,,0.00,Wunderground v.1.15,2013-02-05 15:03:00,
2013-02-05 10:08:00,51.2,38.6,30.01,SW,225,5.0,8.0,62,0.00,,,0.00,Wunderground v.1.15,2013-02-05 15:08:00,
2013-02-05 10:13:00,51.8,38.8,30.01,WSW,239,4.0,8.0,61,0.00,,,0.00,Wunderground v.1.15,2013-02-05 15:13:00,
2013-02-05 10:18:00,52.4,38.9,30.00,SW,233,0.0,8.0,60,0.00,,,0.00,Wunderground v.1.15,2013-02-05 15:18:00,
2013-02-05 10:23:00,53.2,39.7,30.01,WSW,243,5.0,5.0,60,0.00,,,0.00,Wunderground v.1.15,2013-02-05 15:23:00,
2013-02-05 10:28:00,54.0,40.4,30.01,SSW,206,5.0,11.0,60,0.00,,,0.00,Wunderground v.1.15,2013-02-05 15:28:00,
2013-02-05 10:33:00,54.6,41.0,30.02,West,259,6.0,10.0,60,0.00,,,0.00,Wunderground v.1.15,2013-02-05 15:33:00,
2013-02-05 10:38:00,55.2,41.1,30.01,SW,227,8.0,10.0,59,0.00,,,0.00,Wunderground v.1.15,2013-02-05 15:38:00,
2013-02-05 10:43:00,55.9,41.8,30.02,West,272,5.0,5.0,59,0.00,,,0.00,Wunderground v.1.15,2013-02-05 15:43:00,
2013-02-05 10:48:00,56.4,42.7,30.01,NNE,21,0.0,12.0,60,0.00,,,0.00,Wunderground v.1.15,2013-02-05 15:48:00,
2013-02-05 10:53:00,56.8,43.1,30.02,West,271,4.0,6.0,60,0.00,,,0.00,Wunderground v.1.15,2013-02-05 15:53:00,
2013-02-05 10:58:00,57.3,43.1,30.01,NNW,336,6.0,13.0,59,0.00,,,0.00,Wunderground v.1.15,2013-02-05 15:58:00,
2013-02-05 11:03:00,57.3,43.5,30.01,SW,236,2.0,9.0,60,0.00,,,0.00,Wunderground v.1.15,2013-02-05 16:03:00,
2013-02-05 11:08:00,57.2,43.9,30.02,WSW,257,5.0,9.0,61,0.00,,,0.00,Wunderground v.1.15,2013-02-05 16:08:00,
2013-02-05 11:13:00,57.0,43.2,30.01,SW,219,3.0,7.0,60,0.00,,,0.00,Wunderground v.1.15,2013-02-05 16:13:00,
2013-02-05 11:18:00,56.9,43.6,30.02,WSW,256,1.0,11.0,61,0.00,,,0.00,Wunderground v.1.15,2013-02-05 16:18:00,
2013-02-05 11:23:00,57.0,44.1,30.01,West,266,0.0,4.0,62,0.00,,,0.00,Wunderground v.1.15,2013-02-05 16:23:00,
2013-02-05 11:28:00,57.2,44.3,30.01,WSW,252,1.0,8.0,62,0.00,,,0.00,Wunderground v.1.15,2013-02-05 16:28:00,
2013-02-05 11:33:00,57.3,44.4,30.01,SW,227,5.0,10.0,62,0.00,,,0.00,Wunderground v.1.15,2013-02-05 16:33:00,
2013-02-05 11:38:00,57.4,44.5,30.01,West,271,11.0,11.0,62,0.00,,,0.00,Wunderground v.1.15,2013-02-05 16:38:00,
2013-02-05 11:43:00,57.4,44.5,30.00,West,264,0.0,7.0,62,0.00,,,0.00,Wunderground v.1.15,2013-02-05 16:43:00,
2013-02-05 11:48:00,57.5,44.6,30.00,West,271,4.0,7.0,62,0.00,,,0.00,Wunderground v.1.15,2013-02-05 16:48:00,
2013-02-05 11:53:00,57.5,45.0,30.00,West,260,6.0,6.0,63,0.00,,,0.00,Wunderground v.1.15,2013-02-05 16:53:00,
2013-02-05 11:58:00,57.8,45.3,30.00,WSW,238,2.0,11.0,63,0.00,,,0.00,Wunderground v.1.15,2013-02-05 16:58:00,
2013-02-05 12:03:00,58.2,45.7,30.00,SW,219,0.0,4.0,63,0.00,,,0.00,Wunderground v.1.15,2013-02-05 17:03:00,
2013-02-05 12:08:00,58.9,45.9,30.00,WSW,254,1.0,5.0,62,0.00,,,0.00,Wunderground v.1.15,2013-02-05 17:08:00,
2013-02-05 12:13:00,59.4,45.9,30.00,West,276,8.0,8.0,61,0.00,,,0.00,Wunderground v.1.15,2013-02-05 17:13:00,
2013-02-05 12:18:00,59.8,46.3,30.00,ESE,107,0.0,8.0,61,0.00,,,0.00,Wunderground v.1.15,2013-02-05 17:18:00,
2013-02-05 12:24:00,60.0,46.1,29.99,NNW,338,4.0,11.0,60,0.00,,,0.00,Wunderground v.1.15,2013-02-05 17:24:00,
2013-02-05 12:29:00,60.0,46.1,29.99,NE,35,0.0,11.0,60,0.00,,,0.00,Wunderground v.1.15,2013-02-05 17:29:00,
2013-02-05 12:34:00,60.4,46.4,29.99,WSW,243,6.0,11.0,60,0.00,,,0.00,Wunderground v.1.15,2013-02-05 17:34:00,
2013-02-05 12:39:00,60.8,46.8,29.99,North,360,5.0,11.0,60,0.00,,,0.00,Wunderground v.1.15,2013-02-05 17:39:00,
2013-02-05 12:44:00,61.3,46.8,29.98,WSW,243,4.0,11.0,59,0.00,,,0.00,Wunderground v.1.15,2013-02-05 17:44:00,
2013-02-05 12:49:00,61.7,46.8,29.98,West,267,4.0,15.0,58,0.00,,,0.00,Wunderground v.1.15,2013-02-05 17:49:00,
2013-02-05 12:54:00,62.0,46.6,29.97,West,261,7.0,11.0,57,0.00,,,0.00,Wunderground v.1.15,2013-02-05 17:54:00,
2013-02-05 12:59:00,62.0,46.6,29.97,WNW,292,5.0,14.0,57,0.00,,,0.00,Wunderground v.1.15,2013-02-05 17:59:00,
2013-02-05 13:04:00,61.7,46.3,29.97,SW,219,6.0,12.0,57,0.00,,,0.00,Wunderground v.1.15,2013-02-05 18:04:00,
2013-02-05 13:09:00,61.3,46.4,29.97,West,262,4.0,12.0,58,0.00,,,0.00,Wunderground v.1.15,2013-02-05 18:09:00,
2013-02-05 13:14:00,61.4,46.5,29.97,SSW,203,1.0,8.0,58,0.00,,,0.00,Wunderground v.1.15,2013-02-05 18:14:00,
2013-02-05 13:19:00,61.8,46.4,29.96,West,275,6.0,14.0,57,0.00,,,0.00,Wunderground v.1.15,2013-02-05 18:19:00,
2013-02-05 13:24:00,62.0,46.6,29.96,SW,219,6.0,13.0,57,0.00,,,0.00,Wunderground v.1.15,2013-02-05 18:24:00,
2013-02-05 13:29:00,61.9,46.5,29.96,WNW,284,0.0,13.0,57,0.00,,,0.00,Wunderground v.1.15,2013-02-05 18:29:00,
2013-02-05 13:34:00,62.0,47.0,29.96,West,276,13.0,13.0,58,0.00,,,0.00,Wunderground v.1.15,2013-02-05 18:34:00,
2013-02-05 13:39:00,62.0,46.6,29.96,West,281,6.0,17.0,57,0.00,,,0.00,Wunderground v.1.15,2013-02-05 18:39:00,
2013-02-05 13:44:00,61.9,46.5,29.96,WSW,238,6.0,13.0,57,0.00,,,0.00,Wunderground v.1.15,2013-02-05 18:44:00,
2013-02-05 13:50:00,61.8,46.4,29.95,SW,236,5.0,14.0,57,0.00,,,0.00,Wunderground v.1.15,2013-02-05 18:50:00,
2013-02-05 13:55:00,61.8,46.4,29.95,West,267,7.0,13.0,57,0.00,,,0.00,Wunderground v.1.15,2013-02-05 18:55:00,
2013-02-05 14:00:00,61.8,46.9,29.95,West,262,6.0,13.0,58,0.00,,,0.00,Wunderground v.1.15,2013-02-05 19:00:00,
2013-02-05 14:05:00,61.7,46.8,29.96,West,274,4.0,13.0,58,0.00,,,0.00,Wunderground v.1.15,2013-02-05 19:05:00,
2013-02-05 14:10:00,61.6,46.7,29.96,WSW,254,1.0,13.0,58,0.00,,,0.00,Wunderground v.1.15,2013-02-05 19:10:00,
2013-02-05 14:15:00,61.5,46.6,29.95,West,261,3.0,7.0,58,0.00,,,0.00,Wunderground v.1.15,2013-02-05 19:15:00,
2013-02-05 14:20:00,61.6,47.1,29.95,West,266,4.0,7.0,59,0.00,,,0.00,Wunderground v.1.15,2013-02-05 19:20:00,
2013-02-05 14:25:00,61.6,47.1,29.95,WNW,287,1.0,5.0,59,0.00,,,0.00,Wunderground v.1.15,2013-02-05 19:25:00,
2013-02-05 14:30:00,61.5,47.0,29.95,WNW,285,2.0,9.0,59,0.00,,,0.00,Wunderground v.1.15,2013-02-05 19:30:00,
2013-02-05 14:35:00,61.4,46.9,29.95,ENE,57,2.0,7.0,59,0.00,,,0.00,Wunderground v.1.15,2013-02-05 19:35:00,
2013-02-05 14:40:00,61.4,46.9,29.95,West,262,1.0,7.0,59,0.00,,,0.00,Wunderground v.1.15,2013-02-05 19:40:00,
2013-02-05 14:45:00,61.5,47.0,29.95,West,267,0.0,6.0,59,0.00,,,0.00,Wunderground v.1.15,2013-02-05 19:45:00,
2013-02-05 14:50:00,61.7,47.2,29.95,West,265,3.0,11.0,59,0.00,,,0.00,Wunderground v.1.15,2013-02-05 19:50:00,
2013-02-05 14:55:00,62.0,47.5,29.95,WNW,288,5.0,7.0,59,0.00,,,0.00,Wunderground v.1.15,2013-02-05 19:55:00,
2013-02-05 15:00:00,62.5,48.0,29.95,West,277,0.0,8.0,59,0.00,,,0.00,Wunderground v.1.15,2013-02-05 20:00:00,
2013-02-05 15:05:00,62.9,47.4,29.95,West,265,5.0,8.0,57,0.00,,,0.00,Wunderground v.1.15,2013-02-05 20:05:00,
2013-02-05 15:10:00,63.1,47.6,29.95,WSW,255,6.0,10.0,57,0.00,,,0.00,Wunderground v.1.15,2013-02-05 20:10:00,
2013-02-05 15:15:00,62.8,47.3,29.95,West,270,2.0,11.0,57,0.00,,,0.00,Wunderground v.1.15,2013-02-05 20:15:00,
2013-02-05 15:20:00,62.6,47.6,29.95,WNW,294,4.0,11.0,58,0.00,,,0.00,Wunderground v.1.15,2013-02-05 20:20:00,
2013-02-05 15:25:00,62.6,47.6,29.94,WSW,255,3.0,7.0,58,0.00,,,0.00,Wunderground v.1.15,2013-02-05 20:25:00,
2013-02-05 15:30:00,62.6,47.1,29.94,WSW,257,2.0,10.0,57,0.00,,,0.00,Wunderground v.1.15,2013-02-05 20:30:00,
2013-02-05 15:35:00,62.4,47.4,29.95,North,360,3.0,12.0,58,0.00,,,0.00,Wunderground v.1.15,2013-02-05 20:35:00,
2013-02-05 15:40:00,62.4,47.4,29.95,WSW,250,5.0,12.0,58,0.00,,,0.00,Wunderground v.1.15,2013-02-05 20:40:00,
2013-02-05 15:45:00,62.7,47.7,29.95,WSW,240,6.0,11.0,58,0.00,,,0.00,Wunderground v.1.15,2013-02-05 20:45:00,
2013-02-05 15:50:00,63.1,48.1,29.94,West,261,7.0,11.0,58,0.00,,,0.00,Wunderground v.1.15,2013-02-05 20:50:00,
2013-02-05 15:55:00,63.1,47.6,29.94,WSW,252,5.0,10.0,57,0.00,,,0.00,Wunderground v.1.15,2013-02-05 20:55:00,
2013-02-05 16:00:00,63.3,48.3,29.94,North,355,0.0,10.0,58,0.00,,,0.00,Wunderground v.1.15,2013-02-05 21:00:00,
2013-02-05 16:05:00,64.0,48.5,29.94,West,269,3.0,6.0,57,0.00,,,0.00,Wunderground v.1.15,2013-02-05 21:05:00,
2013-02-05 16:10:00,64.4,48.4,29.94,West,277,4.0,8.0,56,0.00,,,0.00,Wunderground v.1.15,2013-02-05 21:10:00,
2013-02-05 16:15:00,64.5,48.4,29.94,WSW,252,4.0,10.0,56,0.00,,,0.00,Wunderground v.1.15,2013-02-05 21:15:00,
2013-02-05 16:20:00,64.2,48.2,29.94,West,281,4.0,10.0,56,0.00,,,0.00,Wunderground v.1.15,2013-02-05 21:20:00,
2013-02-05 16:25:00,63.8,48.3,29.94,SSW,208,4.0,6.0,57,0.00,,,0.00,Wunderground v.1.15,2013-02-05 21:25:00,
2013-02-05 16:30:00,63.5,48.5,29.94,West,261,1.0,12.0,58,0.00,,,0.00,Wunderground v.1.15,2013-02-05 21:30:00,
2013-02-05 16:36:00,63.2,48.2,29.94,SW,231,2.0,6.0,58,0.00,,,0.00,Wunderground v.1.15,2013-02-05 21:36:00,
2013-02-05 16:41:00,62.9,48.3,29.95,WSW,252,3.0,8.0,59,0.00,,,0.00,Wunderground v.1.15,2013-02-05 21:41:00,
2013-02-05 16:46:00,62.5,48.0,29.94,NE,45,0.0,7.0,59,0.00,,,0.00,Wunderground v.1.15,2013-02-05 21:46:00,
2013-02-05 16:51:00,62.2,48.1,29.94,West,275,7.0,8.0,60,0.00,,,0.00,Wunderground v.1.15,2013-02-05 21:51:00,
2013-02-05 16:56:00,62.1,48.5,29.94,West,270,7.0,12.0,61,0.00,,,0.00,Wunderground v.1.15,2013-02-05 21:56:00,
2013-02-05 17:01:00,62.0,48.8,29.94,West,261,6.0,12.0,62,0.00,,,0.00,Wunderground v.1.15,2013-02-05 22:01:00,
2013-02-05 17:06:00,61.7,48.5,29.94,West,271,6.0,8.0,62,0.00,,,0.00,Wunderground v.1.15,2013-02-05 22:06:00,
2013-02-05 17:11:00,61.4,48.7,29.94,West,271,5.0,8.0,63,0.00,,,0.00,Wunderground v.1.15,2013-02-05 22:11:00,
2013-02-05 17:16:00,61.2,48.9,29.94,West,267,2.0,7.0,64,0.00,,,0.00,Wunderground v.1.15,2013-02-05 22:16:00,
2013-02-05 17:21:00,61.0,48.7,29.94,WSW,245,4.0,7.0,64,0.00,,,0.00,Wunderground v.1.15,2013-02-05 22:21:00,
2013-02-05 17:26:00,60.8,49.0,29.94,WSW,257,5.0,7.0,65,0.00,,,0.00,Wunderground v.1.15,2013-02-05 22:26:00,
2013-02-05 17:31:00,60.6,48.8,29.94,WSW,252,2.0,3.0,65,0.00,,,0.00,Wunderground v.1.15,2013-02-05 22:31:00,
2013-02-05 17:36:00,60.4,49.0,29.94,WSW,255,2.0,7.0,66,0.00,,,0.00,Wunderground v.1.15,2013-02-05 22:36:00,
2013-02-05 17:41:00,60.2,48.8,29.94,WSW,255,1.0,3.0,66,0.00,,,0.00,Wunderground v.1.15,2013-02-05 22:41:00,
2013-02-05 17:46:00,59.9,48.9,29.94,WSW,255,2.0,4.0,67,0.00,,,0.00,Wunderground v.1.15,2013-02-05 22:46:00,
2013-02-05 17:51:00,59.7,48.7,29.94,WSW,255,3.0,3.0,67,0.00,,,0.00,Wunderground v.1.15,2013-02-05 22:51:00,
2013-02-05 17:56:00,59.5,48.9,29.94,WSW,255,0.0,3.0,68,0.00,,,0.00,Wunderground v.1.15,2013-02-05 22:56:00,
2013-02-05 18:01:00,59.3,48.7,29.94,WSW,255,0.0,1.0,68,0.00,,,0.00,Wunderground v.1.15,2013-02-05 23:01:00,
2013-02-05 18:06:00,59.1,48.9,29.94,WSW,255,0.0,1.0,69,0.00,,,0.00,Wunderground v.1.15,2013-02-05 23:06:00,
2013-02-05 18:11:00,58.9,48.7,29.94,WSW,255,0.0,0.0,69,0.00,,,0.00,Wunderground v.1.15,2013-02-05 23:11:00,
2013-02-05 18:16:00,58.5,48.7,29.95,WSW,255,0.0,0.0,70,0.00,,,0.00,Wunderground v.1.15,2013-02-05 23:16:00,
2013-02-05 18:21:00,58.1,48.7,29.94,WSW,255,0.0,0.0,71,0.00,,,0.00,Wunderground v.1.15,2013-02-05 23:21:00,
2013-02-05 18:26:00,57.7,48.4,29.94,WSW,255,0.0,0.0,71,0.00,,,0.00,Wunderground v.1.15,2013-02-05 23:26:00,
2013-02-05 18:31:00,57.3,48.3,29.94,WSW,255,0.0,0.0,72,0.00,,,0.00,Wunderground v.1.15,2013-02-05 23:31:00,
2013-02-05 18:36:00,56.8,48.6,29.94,WSW,255,0.0,0.0,74,0.00,,,0.00,Wunderground v.1.15,2013-02-05 23:36:00,
2013-02-05 18:41:00,56.2,48.0,29.94,WSW,255,0.0,0.0,74,0.00,,,0.00,Wunderground v.1.15,2013-02-05 23:41:00,
2013-02-05 18:46:00,55.8,48.0,29.94,WSW,255,0.0,0.0,75,0.00,,,0.00,Wunderground v.1.15,2013-02-05 23:46:00,
2013-02-05 18:51:00,55.5,47.7,29.95,WSW,255,0.0,0.0,75,0.00,,,0.00,Wunderground v.1.15,2013-02-05 23:51:00,
2013-02-05 18:56:00,55.4,47.6,29.95,WSW,255,0.0,0.0,75,0.00,,,0.00,Wunderground v.1.15,2013-02-05 23:56:00,
2013-02-05 19:01:00,55.2,47.8,29.95,WSW,255,0.0,0.0,76,0.00,,,0.00,Wunderground v.1.15,2013-02-06 00:01:00,
2013-02-05 19:06:00,55.1,48.0,29.95,WSW,255,0.0,0.0,77,0.00,,,0.00,Wunderground v.1.15,2013-02-06 00:06:00,
2013-02-05 19:11:00,54.8,47.7,29.95,WSW,255,0.0,0.0,77,0.00,,,0.00,Wunderground v.1.15,2013-02-06 00:11:00,
2013-02-05 19:16:00,54.2,47.1,29.95,WSW,255,0.0,0.0,77,0.00,,,0.00,Wunderground v.1.15,2013-02-06 00:16:00,
2013-02-05 19:21:00,53.8,47.1,29.95,WSW,255,0.0,0.0,78,0.00,,,0.00,Wunderground v.1.15,2013-02-06 00:21:00,
2013-02-05 19:26:00,53.7,47.3,29.95,WSW,255,0.0,0.0,79,0.00,,,0.00,Wunderground v.1.15,2013-02-06 00:26:00,
2013-02-05 19:31:00,53.9,47.5,29.95,WSW,255,0.0,0.0,79,0.00,,,0.00,Wunderground v.1.15,2013-02-06 00:31:00,
2013-02-05 19:36:00,54.2,47.5,29.95,WSW,255,0.0,0.0,78,0.00,,,0.00,Wunderground v.1.15,2013-02-06 00:36:00,
2013-02-05 19:41:00,54.3,47.6,29.95,WSW,255,0.0,0.0,78,0.00,,,0.00,Wunderground v.1.15,2013-02-06 00:41:00,
2013-02-05 19:46:00,54.3,47.6,29.96,WSW,255,0.0,0.0,78,0.00,,,0.00,Wunderground v.1.15,2013-02-06 00:46:00,
2013-02-05 19:51:00,54.2,47.8,29.97,WSW,255,0.0,0.0,79,0.00,,,0.00,Wunderground v.1.15,2013-02-06 00:51:00,
2013-02-05 19:56:00,54.0,47.6,29.96,WSW,255,0.0,0.0,79,0.00,,,0.00,Wunderground v.1.15,2013-02-06 00:56:00,
2013-02-05 20:01:00,53.8,47.8,29.96,WSW,255,0.0,0.0,80,0.00,,,0.00,Wunderground v.1.15,2013-02-06 01:01:00,
2013-02-05 20:07:00,53.7,47.3,29.96,WSW,255,0.0,0.0,79,0.00,,,0.00,Wunderground v.1.15,2013-02-06 01:07:00,
2013-02-05 20:12:00,53.3,47.3,29.97,WSW,255,0.0,0.0,80,0.00,,,0.00,Wunderground v.1.15,2013-02-06 01:12:00,
2013-02-05 20:17:00,53.1,47.1,29.97,WSW,255,0.0,0.0,80,0.00,,,0.00,Wunderground v.1.15,2013-02-06 01:17:00,
2013-02-05 20:22:00,53.3,47.6,29.97,WSW,255,0.0,0.0,81,0.00,,,0.00,Wunderground v.1.15,2013-02-06 01:22:00,
2013-02-05 20:27:00,53.9,48.2,29.97,WSW,255,0.0,3.0,81,0.00,,,0.00,Wunderground v.1.15,2013-02-06 01:27:00,
2013-02-05 20:32:00,54.3,48.3,29.97,WSW,255,0.0,0.0,80,0.00,,,0.00,Wunderground v.1.15,2013-02-06 01:32:00,
2013-02-05 20:37:00,54.6,48.2,29.97,WSW,255,0.0,0.0,79,0.00,,,0.00,Wunderground v.1.15,2013-02-06 01:37:00,
2013-02-05 20:42:00,54.5,48.1,29.97,WSW,255,0.0,0.0,79,0.00,,,0.00,Wunderground v.1.15,2013-02-06 01:42:00,
2013-02-05 20:47:00,54.3,47.9,29.97,WSW,255,0.0,0.0,79,0.00,,,0.00,Wunderground v.1.15,2013-02-06 01:47:00,
2013-02-05 20:52:00,54.1,47.7,29.97,WSW,255,0.0,0.0,79,0.00,,,0.00,Wunderground v.1.15,2013-02-06 01:52:00,
2013-02-05 20:57:00,53.8,47.8,29.98,WSW,255,0.0,0.0,80,0.00,,,0.00,Wunderground v.1.15,2013-02-06 01:57:00,
2013-02-05 21:02:00,53.6,47.9,29.98,WSW,255,0.0,0.0,81,0.00,,,0.00,Wunderground v.1.15,2013-02-06 02:02:00,
2013-02-05 21:07:00,53.3,47.9,29.98,WSW,255,0.0,0.0,82,0.00,,,0.00,Wunderground v.1.15,2013-02-06 02:07:00,
2013-02-05 21:12:00,53.0,48.0,29.98,WSW,255,0.0,0.0,83,0.00,,,0.00,Wunderground v.1.15,2013-02-06 02:12:00,
2013-02-05 21:17:00,52.8,48.1,29.98,WSW,255,0.0,0.0,84,0.00,,,0.00,Wunderground v.1.15,2013-02-06 02:17:00,
2013-02-05 21:22:00,52.8,48.4,29.98,WSW,255,0.0,0.0,85,0.00,,,0.00,Wunderground v.1.15,2013-02-06 02:22:00,
2013-02-05 21:27:00,52.7,48.3,29.98,WSW,255,0.0,0.0,85,0.00,,,0.00,Wunderground v.1.15,2013-02-06 02:27:00,
2013-02-05 21:32:00,52.2,47.5,29.98,WSW,255,0.0,0.0,84,0.00,,,0.00,Wunderground v.1.15,2013-02-06 02:32:00,
2013-02-05 21:37:00,51.8,47.1,29.98,WSW,255,0.0,0.0,84,0.00,,,0.00,Wunderground v.1.15,2013-02-06 02:37:00,
2013-02-05 21:42:00,51.7,47.3,29.99,WSW,255,0.0,0.0,85,0.00,,,0.00,Wunderground v.1.15,2013-02-06 02:42:00,
2013-02-05 21:47:00,51.8,47.4,29.98,WSW,255,0.0,0.0,85,0.00,,,0.00,Wunderground v.1.15,2013-02-06 02:47:00,
2013-02-05 21:52:00,52.2,47.8,29.98,WSW,255,0.0,0.0,85,0.00,,,0.00,Wunderground v.1.15,2013-02-06 02:52:00,
2013-02-05 21:57:00,52.5,47.8,29.98,WSW,255,0.0,0.0,84,0.00,,,0.00,Wunderground v.1.15,2013-02-06 02:57:00,
2013-02-05 22:02:00,52.7,48.0,29.98,WSW,255,0.0,0.0,84,0.00,,,0.00,Wunderground v.1.15,2013-02-06 03:02:00,
2013-02-05 22:07:00,52.9,48.5,29.99,WSW,255,0.0,0.0,85,0.00,,,0.00,Wunderground v.1.15,2013-02-06 03:07:00,
2013-02-05 22:12:00,52.7,48.0,29.99,ENE,60,2.0,5.0,84,0.00,,,0.00,Wunderground v.1.15,2013-02-06 03:12:00,
2013-02-05 22:17:00,52.1,47.4,29.99,ENE,60,0.0,5.0,84,0.00,,,0.00,Wunderground v.1.15,2013-02-06 03:17:00,
2013-02-05 22:22:00,51.9,47.5,29.99,ENE,60,0.0,1.0,85,0.00,,,0.00,Wunderground v.1.15,2013-02-06 03:22:00,
2013-02-05 22:27:00,51.2,46.8,29.99,ENE,61,0.0,1.0,85,0.00,,,0.00,Wunderground v.1.15,2013-02-06 03:27:00,
2013-02-05 22:32:00,50.7,46.7,29.99,ENE,61,0.0,0.0,86,0.00,,,0.00,Wunderground v.1.15,2013-02-06 03:32:00,
2013-02-05 22:37:00,50.4,46.7,29.99,ENE,61,0.0,0.0,87,0.00,,,0.00,Wunderground v.1.15,2013-02-06 03:37:00,
2013-02-05 22:42:00,50.1,46.1,29.99,ENE,61,0.0,0.0,86,0.00,,,0.00,Wunderground v.1.15,2013-02-06 03:42:00,
2013-02-05 22:47:00,50.0,46.6,30.00,ENE,61,0.0,0.0,88,0.00,,,0.00,Wunderground v.1.15,2013-02-06 03:47:00,
2013-02-05 22:52:00,49.9,46.8,29.99,ENE,61,0.0,0.0,89,0.00,,,0.00,Wunderground v.1.15,2013-02-06 03:52:00,
2013-02-05 22:57:00,49.9,46.5,30.00,ENE,61,0.0,0.0,88,0.00,,,0.00,Wunderground v.1.15,2013-02-06 03:57:00,
2013-02-05 23:02:00,49.9,46.8,29.99,ENE,61,0.0,0.0,89,0.00,,,0.00,Wunderground v.1.15,2013-02-06 04:02:00,
2013-02-05 23:07:00,49.9,46.5,29.99,ENE,61,0.0,0.0,88,0.00,,,0.00,Wunderground v.1.15,2013-02-06 04:07:00,
2013-02-05 23:12:00,49.8,46.4,29.99,ENE,61,0.0,0.0,88,0.00,,,0.00,Wunderground v.1.15,2013-02-06 04:12:00,
2013-02-05 23:17:00,49.6,46.2,29.99,ENE,61,0.0,0.0,88,0.00,,,0.00,Wunderground v.1.15,2013-02-06 04:17:00,
2013-02-05 23:22:00,49.2,45.8,29.99,ENE,61,0.0,0.0,88,0.00,,,0.00,Wunderground v.1.15,2013-02-06 04:22:00,
2013-02-05 23:27:00,48.8,45.4,29.99,ENE,61,0.0,0.0,88,0.00,,,0.00,Wunderground v.1.15,2013-02-06 04:27:00,
2013-02-05 23:32:00,48.7,45.6,29.98,ENE,61,0.0,0.0,89,0.00,,,0.00,Wunderground v.1.15,2013-02-06 04:32:00,
2013-02-05 23:37:00,48.7,45.9,29.99,ENE,61,0.0,0.0,90,0.00,,,0.00,Wunderground v.1.15,2013-02-06 04:37:00,
2013-02-05 23:42:00,48.7,46.2,30.00,ENE,61,0.0,0.0,91,0.00,,,0.00,Wunderground v.1.15,2013-02-06 04:42:00,
2013-02-05 23:47:00,48.8,46.3,29.99,ENE,61,0.0,0.0,91,0.00,,,0.00,Wunderground v.1.15,2013-02-06 04:47:00,
2013-02-05 23:48:00,35.7,30.4,30.24,North,355,0.0,0.0,81,0.00,,,0.00,Wunderground v.1.15,2013-02-06 04:48:00,
2013-02-05 23:49:00,35.7,30.4,30.24,North,355,0.0,0.0,81,0.00,,,0.00,Wunderground v.1.15,2013-02-06 04:49:00,
2013-02-05 23:50:00,35.7,30.4,30.24,North,355,0.0,0.0,81,0.00,,,0.00,Wunderground v.1.15,2013-02-06 04:50:00,
2013-02-05 23:51:00,35.7,30.4,30.24,North,355,0.0,0.0,81,0.00,,,0.00,Wunderground v.1.15,2013-02-06 04:51:00,
2013-02-05 23:52:00,48.7,45.9,30.00,ENE,61,0.0,0.0,90,0.00,,,0.00,Wunderground v.1.15,2013-02-06 04:52:00,
2013-02-05 23:53:00,35.7,30.4,30.24,North,355,0.0,0.0,81,0.00,,,0.00,Wunderground v.1.15,2013-02-06 04:53:00,
2013-02-05 23:54:00,35.7,30.4,30.24,North,355,0.0,0.0,81,0.00,,,0.00,Wunderground v.1.15,2013-02-06 04:54:00,
2013-02-05 23:55:00,35.7,30.4,30.24,North,355,0.0,0.0,81,0.00,,,0.00,Wunderground v.1.15,2013-02-06 04:55:00,
2013-02-05 23:57:00,48.2,45.1,30.00,ENE,61,0.0,0.0,89,0.00,,,0.00,Wunderground v.1.15,2013-02-06 04:57:00,